Regional Weather Roundup
Issued by NWS Green Bay, WI

Home | Current Version | Previous Version | Graphics & Text | Print | Product List | Glossary Off
Versions: 1 2 3 4 5 6 7 8 9 10 11 12 13 14 15 16 17 18 19 20 21 22 23 24 25 26 27 28 29 30 31 32 33 34 35 36 37 38 39 40 41 42 43 44 45 46 47 48 49 50

000
ASUS43 KGRB 300410
RWRGRB

NORTH-CENTRAL AND NORTHEAST WISCONSIN REGIONAL WEATHER ROUNDUP
NATIONAL WEATHER SERVICE GREEN BAY WI
1100 PM CDT TUE JUL 29 2014

WIZ005-009-010>012-018-019-300500-
NORTH CENTRAL WISCONSIN

CITY           SKY/WX    TMP DP  RH WIND       PRES   REMARKS
IRONWOOD       NOT AVBL
MANITOWISH WTR PTCLDY    55  55 100 N3        30.04R
ARBOR VITAE    PTCLDY    57  52  84 N3        30.03S
EAGLE RIVER    CLEAR     54  54  99 CALM      30.03S
LAND O LAKES   CLEAR     53  51  95 NE3       30.05R
RHINELANDER    PTCLDY    56  55  97 NW3       30.03S
PHILLIPS       MOCLDY    56  55  99 CALM      30.03R
ANTIGO         PTCLDY    54  53  97 CALM      30.02S
TOMAHAWK       CLOUDY    54  53  97 CALM      30.03F
MERRILL        PTCLDY    55  55  99 W5        30.02S
$$

WIZ013-073-300500-
NORTHEAST WISCONSIN

CITY           SKY/WX    TMP DP  RH WIND       PRES   REMARKS
IRON MOUNTAIN  MOCLDY    56  51  84 N6        30.00R
MARINETTE      MOCLDY    61  57  88 NE3       29.98S
OCONTO         MOCLDY    59  59 100 W3        29.98S
$$

WIZ017-030-035>037-045-300500-
CENTRAL WISCONSIN

CITY           SKY/WX    TMP DP  RH WIND       PRES   REMARKS
MEDFORD        MOCLDY    54  53  99 CALM      30.03S
WAUSAU         PTCLDY    59  56  89 NW5       30.01R
MOSINEE        MOCLDY    57  54  88 NW5       30.03S
MARSHFIELD     CLOUDY    59  56  89 W7        30.02S
WISC RAPIDS    LGT RAIN  61  57  87 CALM      30.04F
STEVENS POINT  CLOUDY    60  53  76 W5        30.02F
WAUPACA        MOCLDY    62  57  86 CALM      30.01S
SHAWANO        MOCLDY    62  58  86 W3        29.99S
CLINTONVILLE   PTCLDY    59  55  88 CALM      29.99F
$$

WIZ038-039-048-051-300500-
FOX VALLEY

CITY           SKY/WX    TMP DP  RH WIND       PRES   REMARKS
NWS GREEN BAY  MOCLDY    60  59  96 W8        29.98S
APPLETON       MOCLDY    57  57 100 W10       30.00S
OSHKOSH        MOCLDY    59  57  93 VRB5      30.00S
FOND DU LAC    PTCLDY    59  56  89 SW7       30.02R
$$

WIZ022-050-052-300500-
EAST CENTRAL WISCONSIN

CITY           SKY/WX    TMP DP  RH WIND       PRES   REMARKS
STURGEON BAY   MOCLDY    57  55  94 NE5       29.99S
MANITOWOC      MOCLDY    61  57  87 MISG      29.98S
SHEBOYGAN      MOCLDY    59  55  87 W3        29.99S
$$

LMZ563-521-522-541>543-300500-
LAKESHORE

STATION/POSITION TIME  TEMP    WIND        PRES    VSBY  WAVE
                       AIR SEA DIR/SP/G                  HT/PER
                 (UTC) (F)     (DEG/KT/KT) (MB)    (MI)  (FT/S)
SHEBOYGAN LKSHOR 0400   63     270/ 13/ 15 1015.2S
KEWAUNEE LKSHORE 0400   61     310/  3/  5 1015.7R
ALGOMA MARINA    0300          340/  6/  7   N/A
TWO RIVERS CG    0300   60 61                N/A           0
NORTHPORT PIER   0400   62      70/  1/  2 1015.2S
N MID LAKE BUOY  0400   57 54  340/  4/  6 1014.9R         0
S GREEN BAY BUOY 0400   65 66  310/  6     1015.7F
SISTER BAY LKSHO 0300   63     120/  2/  7   N/A
CHAMBERS ISLAND  0400   64      10/  8/ 10 1015.6S
MENOMINEE LKSHOR 0400   62      20/  6/  7 1015.9R
$$


USA.gov is the U.S. government's official web portal to all federal, state and local government web resources and services.